Theta_e
314 314 314 316 314 319 324 321 326 329 332 330 329 327 323 324 324 323 322 322 323 320 319 320 320 320 321 321 320 320 320 321 321 322 327 327 320 320 320 319 320 319 320 319 319 320 322 324 327 329 330 329 328 329 329 328 328 327 326 326 328 330 330 330 328 326 324 324 323 323 324 324 325 325 325 325 325 324 324 324 324 323 325 325 325 331 332 332 332 330 330 329 329 330 330 331 331
313 314 314 315 318 323 322 321 328 331 334 328 322 324 321 326 325 322 322 322 323 320 320 320 320 321 320 320 320 320 320 320 320 321 324 323 322 323 320 317 319 319 321 319 319 319 320 322 324 326 329 330 329 328 328 328 327 327 326 325 326 327 327 327 325 324 323 323 322 323 324 325 326 325 326 326 325 325 324 325 325 323 324 324 325 331 333 333 332 328 327 328 329 329 329 330 330
313 314 314 316 322 324 324 327 332 329 329 322 319 324 322 325 323 321 322 321 321 320 321 320 321 321 320 321 320 320 320 320 321 322 323 324 325 322 318 317 318 320 320 320 319 319 320 321 322 324 325 328 329 328 328 328 327 326 325 324 324 324 325 325 324 324 323 322 322 322 323 325 325 326 327 327 327 326 326 325 324 323 323 324 327 331 332 332 331 326 325 326 327 327 326 327 328
313 315 316 319 323 325 328 330 332 326 322 322 319 323 322 322 322 321 320 320 321 321 321 320 321 321 321 321 321 320 319 320 320 320 322 323 322 318 317 317 318 320 320 321 320 319 319 320 322 323 323 325 327 329 328 327 327 326 325 324 323 324 324 324 324 324 323 323 322 323 323 324 326 328 329 329 329 328 327 325 324 323 323 325 329 332 333 330 329 327 324 324 324 322 320 322 324
313 316 318 322 324 325 329 327 329 323 320 326 321 319 321 320 322 321 320 320 321 320 321 320 321 321 321 321 320 319 319 320 319 319 319 318 318 317 317 316 317 319 320 321 320 320 319 319 321 322 323 324 325 327 327 327 327 326 325 324 324 324 324 324 324 324 324 323 323 324 324 326 329 331 331 331 329 327 325 324 323 323 323 325 328 332 332 328 326 327 325 321 319 317 315 316 317
315 317 317 321 322 320 327 328 329 327 325 330 322 319 320 319 321 320 320 321 321 321 320 320 320 321 320 321 320 320 319 319 319 318 317 317 317 317 317 316 316 318 320 321 321 321 320 319 319 321 323 323 324 325 326 325 325 325 325 325 325 324 324 325 324 325 324 324 324 324 325 327 330 333 333 330 328 324 322 322 322 322 325 327 328 330 329 327 326 325 322 317 314 313 312 312 312
321 321 319 321 322 320 326 326 328 329 326 326 320 320 320 319 321 319 321 320 320 321 320 321 320 320 320 320 320 320 320 319 318 317 317 317 317 317 317 316 316 317 319 321 321 321 321 320 319 320 321 322 323 324 324 324 324 323 323 324 323 324 325 325 325 325 325 324 324 324 326 329 331 333 333 330 327 325 322 322 323 323 324 325 326 327 326 325 324 321 315 313 311 311 311 311 311
322 323 320 324 328 324 326 325 329 329 321 321 320 319 319 319 320 320 321 319 321 321 320 321 319 321 321 319 320 320 320 319 317 317 317 317 317 316 316 316 316 316 318 320 321 321 321 321 319 319 319 321 322 322 323 323 323 322 322 321 321 322 324 325 326 325 324 324 324 325 327 329 331 332 333 330 328 328 325 323 323 323 324 324 324 324 323 322 320 316 311 311 310 310 310 309 309
320 322 320 324 329 325 328 329 329 328 321 321 319 319 319 320 320 320 321 320 320 321 320 321 320 320 320 319 320 320 320 320 318 318 317 317 316 316 316 316 316 316 317 319 320 320 321 321 321 319 319 319 319 320 321 321 321 321 320 320 319 321 323 323 324 324 323 323 324 326 326 326 330 332 332 330 329 329 327 323 320 320 321 322 322 323 323 321 317 314 311 310 308 307 307 307 306
322 322 321 326 330 324 329 330 326 325 322 319 318 319 319 319 319 320 320 320 320 320 320 320 320 320 319 320 319 320 320 320 319 318 317 317 316 316 316 316 316 316 316 317 318 320 320 321 321 320 319 318 318 318 319 319 319 319 318 317 318 320 322 322 322 322 322 322 323 324 322 325 331 332 331 330 328 328 325 321 318 318 318 318 319 320 320 319 316 313 309 307 305 305 305 304 304
324 320 319 328 330 324 324 325 325 328 323 319 319 319 319 319 319 319 319 319 319 318 319 319 319 319 318 319 318 319 321 321 319 318 317 316 317 316 316 316 316 316 316 316 317 319 320 320 321 321 320 319 318 317 317 317 317 317 316 316 316 317 319 321 322 322 322 322 321 320 320 325 331 332 330 328 327 326 323 318 317 316 315 314 315 316 317 315 313 310 307 305 304 304 304 304 304
325 324 324 326 325 323 323 322 325 329 326 322 319 318 319 319 318 319 318 317 317 316 318 319 319 318 317 318 318 319 321 320 319 318 317 317 317 316 317 316 316 316 316 316 316 317 318 319 320 321 321 320 319 318 318 317 316 315 315 315 314 314 315 317 319 321 322 322 321 319 320 326 331 331 329 327 325 323 319 316 315 314 312 311 311 313 313 312 310 308 305 304 304 304 304 304 304
323 325 328 328 325 324 323 322 325 330 328 322 318 318 318 318 319 318 317 317 317 317 319 319 318 318 318 318 317 318 319 319 320 318 317 317 317 317 316 316 316 316 316 316 316 316 317 318 319 320 321 321 320 319 318 318 317 315 315 315 314 314 313 314 316 318 321 322 322 320 320 327 332 332 329 327 324 319 316 313 312 312 311 310 310 310 310 309 308 306 305 304 304 304 304 304 305
321 322 325 328 329 326 323 324 326 326 324 320 317 318 318 318 318 318 318 318 317 317 319 318 317 317 317 317 317 319 319 319 320 319 318 318 317 317 316 316 316 316 316 316 316 316 316 316 317 319 320 320 320 320 319 318 317 316 316 315 314 314 313 313 314 316 318 319 322 322 321 327 332 333 332 329 324 319 316 313 312 311 310 309 308 309 309 308 306 305 305 304 304 304 305 305 307
320 321 324 326 329 328 327 325 325 323 321 322 318 318 318 318 318 318 318 318 318 317 318 318 317 317 317 317 318 319 319 318 319 318 318 317 317 317 316 315 316 316 316 316 315 316 316 316 316 317 318 319 319 319 319 319 318 317 316 316 315 314 314 314 314 314 316 316 319 321 322 328 333 333 333 332 327 321 318 315 313 311 310 308 306 307 307 306 305 305 304 304 304 304 305 306 307
318 322 327 327 328 328 327 325 325 325 322 320 318 318 319 318 318 318 318 318 318 318 318 318 317 317 317 317 317 317 317 317 318 318 317 317 317 317 316 316 315 315 315 316 316 316 315 315 316 316 316 317 317 318 318 319 318 318 317 317 316 316 315 314 314 314 315 315 315 318 322 327 332 332 333 332 327 322 318 316 314 312 310 307 305 305 306 305 305 305 304 304 304 305 306 307 307
316 324 329 327 329 328 327 324 321 323 321 319 317 318 318 318 318 317 318 318 318 318 317 317 317 317 317 317 317 317 318 318 318 318 318 318 318 317 317 316 316 315 315 315 315 315 316 315 315 316 316 316 316 317 317 318 318 318 318 317 317 317 316 316 315 315 314 315 314 316 320 325 329 330 330 327 322 318 316 314 313 312 309 306 304 305 305 305 305 304 304 304 304 306 307 307 306
319 329 327 325 331 328 325 323 318 319 320 318 317 317 317 318 317 317 317 317 317 317 317 317 317 317 316 316 316 317 317 318 318 318 319 318 318 318 317 317 316 315 314 315 315 315 315 315 315 315 316 316 316 316 316 316 317 318 318 318 317 317 317 316 316 315 315 315 314 315 319 325 326 326 324 320 316 314 313 313 312 311 308 305 304 305 305 305 304 304 304 304 305 306 306 306 306
321 327 325 330 336 326 321 320 317 318 319 318 318 318 318 318 317 317 317 316 317 317 317 317 317 316 315 316 316 317 317 317 317 318 319 318 318 318 317 318 316 315 314 314 315 316 316 315 315 315 315 315 315 316 316 316 316 316 317 318 317 317 316 316 316 316 315 315 314 314 317 323 324 322 319 316 314 313 313 313 312 311 308 304 304 305 304 304 304 304 304 304 305 306 306 306 306
321 323 326 335 331 321 320 318 317 318 318 318 318 319 318 318 318 317 317 316 317 317 317 317 317 316 315 316 316 316 317 317 317 317 317 317 318 318 317 317 316 314 314 314 315 316 317 316 316 315 315 315 315 316 316 316 316 316 317 317 317 317 317 316 316 315 315 314 314 313 314 319 322 321 318 315 314 313 313 312 311 311 308 305 304 305 304 304 304 304 304 304 305 306 306 306 306
321 322 328 330 321 319 321 319 318 318 319 318 318 318 318 318 318 317 317 317 317 316 316 317 317 316 316 316 316 316 317 317 317 317 317 317 317 317 317 317 315 314 314 314 315 316 316 316 317 316 315 315 315 315 315 315 316 316 316 317 317 317 317 317 316 315 314 314 314 314 313 315 317 318 317 315 314 313 312 311 310 310 308 305 304 305 304 304 304 304 304 304 305 306 306 306 306
320 320 322 322 318 319 320 318 318 317 318 318 317 318 318 318 317 317 317 317 317 316 315 317 316 316 316 316 317 317 317 317 317 317 317 317 317 317 316 317 315 315 315 314 314 314 315 315 316 316 316 315 315 315 315 315 315 316 316 317 317 317 317 317 316 316 315 314 314 314 314 315 315 315 315 314 313 312 312 311 310 309 308 306 305 305 305 304 304 304 304 304 305 306 306 306 306
320 321 318 318 318 318 318 318 317 317 317 318 318 318 318 317 317 317 316 316 316 316 316 316 316 316 316 317 317 316 316 316 317 317 317 317 317 316 316 316 316 315 315 315 314 314 315 315 315 315 315 315 315 315 315 315 315 315 316 316 317 317 317 317 317 316 315 315 315 315 315 316 316 315 315 313 312 312 312 312 311 310 308 307 305 305 305 305 304 304 303 303 304 305 306 305 305
320 322 319 318 319 318 318 318 317 317 317 317 318 317 317 317 318 318 316 317 317 317 317 316 316 316 316 316 316 316 316 316 316 316 316 316 316 316 316 316 316 316 315 315 315 315 314 314 315 315 315 315 315 315 315 315 315 315 316 316 317 317 318 318 317 317 316 315 315 316 316 317 317 316 314 313 312 312 312 312 312 311 309 308 306 305 305 305 305 304 303 303 304 305 305 305 305
318 319 318 317 318 317 317 317 317 317 316 317 316 316 316 317 317 316 316 317 317 318 317 316 316 316 316 316 316 316 316 316 316 316 316 315 315 315 316 315 315 315 315 315 315 315 315 315 315 315 315 315 315 316 316 315 315 316 316 317 317 317 318 318 318 319 318 317 316 315 316 318 318 316 314 313 312 313 313 313 313 312 310 308 306 305 305 306 305 304 303 303 304 304 305 305 305
316 316 316 315 315 316 316 316 316 316 316 315 315 314 315 316 316 316 316 317 318 318 317 317 316 316 316 316 316 316 316 316 316 315 315 315 315 315 315 316 316 315 315 315 315 315 315 315 315 316 316 316 316 316 317 316 316 317 317 317 318 318 318 318 318 319 320 319 318 316 315 316 317 318 317 315 313 313 313 313 313 313 311 309 307 306 305 306 306 305 304 303 304 304 304 304 305
315 314 315 314 315 315 315 315 315 315 315 314 314 314 314 314 316 316 316 317 317 317 316 317 316 316 316 316 316 316 316 315 315 315 315 315 315 315 316 315 316 316 316 316 316 316 316 315 316 316 316 317 317 317 317 317 317 317 318 319 320 321 320 320 320 320 320 320 319 319 317 317 316 317 318 317 315 314 313 313 313 313 312 310 308 307 305 305 306 305 304 303 304 303 303 304 304
315 314 315 315 315 315 315 314 314 314 314 315 314 314 314 313 315 316 316 317 317 316 316 316 316 316 316 316 316 315 315 314 314 315 314 314 314 314 315 315 315 316 316 316 316 316 316 316 316 316 316 317 317 317 318 318 318 318 319 321 322 323 323 324 324 323 323 322 321 321 320 320 319 318 318 317 317 316 314 313 313 313 313 311 309 307 306 304 305 305 304 303 303 302 302 303 303
314 314 315 316 314 314 315 314 314 314 314 315 314 315 316 315 315 316 316 317 316 316 317 316 316 316 315 316 315 314 314 314 314 314 314 314 314 314 314 314 315 315 315 315 315 314 315 315 315 315 316 317 317 317 318 319 319 320 320 321 322 324 325 326 326 326 326 325 324 324 323 323 322 321 320 319 319 318 316 315 314 314 314 312 309 308 306 305 304 305 305 303 303 302 302 302 303
315 314 314 316 316 317 316 314 315 314 314 315 315 317 321 320 315 316 317 316 316 316 316 316 316 315 315 316 314 313 314 314 314 314 314 314 313 314 314 314 314 314 314 314 314 314 313 314 315 315 315 316 317 318 319 319 320 321 321 322 322 324 326 327 327 327 328 327 327 327 326 326 325 323 323 323 322 321 319 318 316 315 314 313 311 309 308 306 304 304 305 304 303 302 302 302 302
315 313 315 317 316 320 320 314 315 315 314 314 315 317 321 320 316 316 317 316 316 316 316 315 315 315 315 314 313 313 314 313 313 313 313 313 313 313 313 313 313 313 313 313 313 313 313 313 315 315 315 316 318 318 319 320 320 321 322 322 323 324 326 327 328 328 328 328 328 328 327 327 327 326 325 325 324 323 322 320 319 316 316 314 312 311 310 308 305 304 304 304 303 302 302 302 302
316 314 321 321 316 321 322 314 315 316 315 313 314 318 318 317 315 316 316 316 316 314 314 315 315 315 313 313 312 313 313 312 312 313 313 313 313 313 313 313 313 313 313 313 312 312 312 313 314 315 315 317 317 319 320 321 322 323 323 323 324 325 326 327 327 327 328 327 328 327 327 327 327 327 326 326 326 325 324 322 321 319 317 316 314 313 312 310 307 305 304 304 303 302 302 301 301
320 316 322 323 318 319 321 317 315 314 315 313 313 317 318 316 315 316 316 315 315 313 313 314 313 313 312 312 312 312 311 311 312 312 312 313 313 313 313 312 312 312 312 312 311 311 312 312 313 314 314 316 316 318 320 322 323 323 323 324 324 325 326 326 327 327 327 327 327 327 327 327 327 327 326 326 326 326 325 324 322 321 320 319 317 316 314 312 310 307 304 303 303 302 302 301 301
325 320 320 323 321 318 321 322 316 312 315 315 314 314 315 316 314 314 316 316 315 313 313 314 312 312 312 311 311 310 310 310 310 310 311 312 312 311 310 310 310 310 311 310 310 310 311 312 313 313 314 314 314 314 318 321 323 324 324 324 324 324 325 326 326 326 326 326 326 326 326 326 326 326 326 326 326 325 325 324 323 322 322 321 320 319 317 315 312 309 306 304 303 302 302 301 301
326 324 321 323 322 319 319 321 317 315 317 317 316 315 314 316 314 313 316 316 315 314 313 313 312 311 310 310 309 309 309 308 307 307 309 309 309 309 308 308 308 309 309 309 309 310 310 311 312 312 312 312 311 311 314 318 320 322 323 324 323 324 324 324 325 325 325 324 324 325 325 325 325 325 325 325 325 325 325 324 324 323 323 322 321 320 318 317 315 312 309 305 303 302 302 301 300
323 323 322 322 321 320 319 319 318 316 317 317 317 317 316 316 316 314 315 316 314 313 313 312 311 309 308 308 307 307 306 306 305 305 307 307 308 308 307 308 307 308 308 308 309 309 309 310 310 310 310 310 309 311 313 314 316 318 321 322 322 323 323 323 323 323 322 322 323 323 323 324 324 324 323 323 324 323 323 323 323 323 322 322 322 320 319 318 316 314 312 308 304 302 301 301 299
318 318 320 321 321 320 319 318 317 314 316 319 318 317 317 317 317 315 314 314 313 312 312 309 309 307 306 306 305 305 304 303 304 305 306 306 307 307 307 307 307 307 307 307 308 309 309 310 310 310 310 310 311 311 312 312 313 315 316 317 318 318 319 320 320 321 321 321 321 322 322 322 323 323 322 322 322 321 321 321 321 321 322 322 321 321 320 319 317 316 314 310 306 303 302 300 300
316 318 319 321 322 320 318 318 317 313 315 320 319 316 317 317 316 315 313 313 312 311 310 308 308 306 305 305 303 303 303 303 304 305 305 306 306 306 307 307 307 307 307 307 308 308 309 309 309 309 309 310 311 312 312 313 314 315 315 315 315 315 316 316 317 317 318 319 319 320 319 320 320 320 320 320 319 318 318 318 319 320 320 320 320 320 320 319 318 317 315 313 309 305 302 301 300
318 320 320 321 322 319 320 320 317 314 315 320 321 316 316 317 315 314 312 312 310 310 309 308 307 305 304 304 303 303 303 304 304 304 305 305 305 306 306 307 307 307 307 307 307 307 307 307 308 308 308 309 309 310 310 311 313 314 315 315 316 316 315 314 313 312 313 314 315 317 317 317 317 317 317 316 315 314 315 316 317 318 318 319 319 319 319 319 318 318 316 315 312 308 304 301 300
320 320 319 322 319 318 323 322 317 315 315 317 318 316 316 315 315 314 311 309 309 308 308 307 305 304 303 303 303 303 303 303 303 304 304 304 305 305 306 306 306 306 307 307 308 307 307 307 307 307 307 307 307 307 307 308 308 309 311 312 312 312 312 311 309 308 308 309 311 313 314 314 314 313 312 311 310 311 313 315 315 316 317 317 317 318 318 318 318 318 317 316 314 310 306 303 301
325 322 320 321 319 318 321 321 319 318 319 319 316 319 322 318 317 317 311 308 309 307 306 306 304 303 303 302 302 302 302 302 303 303 303 303 304 305 305 306 306 307 307 307 307 308 307 307 307 307 307 308 308 308 307 307 307 306 307 307 308 308 308 307 307 307 306 306 306 307 307 307 307 307 306 306 306 308 310 312 313 314 314 315 315 316 316 316 317 317 316 316 314 312 309 306 302
324 324 322 320 318 319 318 320 322 321 324 323 317 323 329 324 320 319 314 310 309 307 306 305 304 303 302 302 301 301 301 301 302 302 302 303 304 304 305 305 306 306 306 306 307 307 307 307 307 307 308 308 308 308 308 308 308 307 306 306 306 306 306 306 306 306 305 304 304 304 304 304 304 304 304 304 304 305 306 308 310 312 312 313 313 314 314 315 315 315 315 314 313 312 311 307 304
322 323 322 320 319 320 319 320 322 322 323 320 317 323 325 322 320 321 318 314 310 307 306 304 304 303 302 301 300 300 300 300 301 302 302 302 303 304 305 305 305 305 305 306 306 306 307 307 307 307 307 307 308 308 308 308 308 308 307 306 306 306 306 305 305 305 304 304 303 303 303 303 303 303 303 303 303 303 304 304 306 308 310 311 311 312 312 313 313 313 313 313 312 311 310 307 305
324 322 320 321 321 319 320 320 320 322 321 318 317 319 319 319 320 319 318 315 310 308 306 305 304 303 302 301 300 300 300 300 301 301 301 302 303 303 304 304 304 304 304 305 305 305 305 306 306 306 306 306 306 307 307 307 308 308 307 307 306 306 305 305 305 304 304 304 304 303 303 303 303 302 302 302 302 302 303 303 303 304 306 308 309 310 310 310 311 311 311 311 310 309 308 307 307
323 320 316 318 319 318 319 319 320 320 318 318 320 316 317 322 323 319 315 314 311 308 307 305 303 303 302 300 300 299 299 299 300 301 301 301 302 302 303 303 303 303 304 304 304 304 304 305 305 305 305 305 305 305 306 306 306 306 306 307 306 306 306 305 305 305 304 304 304 303 303 302 302 302 302 302 302 302 302 302 302 302 303 304 305 307 308 308 308 309 309 309 309 308 307 306 306
317 316 317 320 319 317 318 318 319 318 317 320 321 318 318 323 328 323 316 315 313 309 306 305 303 303 302 301 300 299 299 299 299 299 300 301 301 302 302 302 302 302 303 304 304 304 304 304 305 305 304 304 304 304 304 304 304 304 305 305 305 306 306 306 305 305 305 304 304 303 303 302 302 302 302 301 301 301 301 301 301 301 301 302 302 303 304 305 306 306 307 307 307 307 306 306 305
312 316 321 324 323 320 319 321 321 317 319 323 321 319 317 320 330 329 319 317 313 309 307 305 303 303 302 301 300 299 298 298 298 298 299 300 300 301 302 302 302 302 303 304 304 304 304 304 304 304 304 304 304 303 303 303 303 303 303 303 304 304 304 305 305 305 305 305 304 304 303 302 301 301 301 301 301 301 301 300 300 300 300 300 301 301 301 302 303 303 304 305 305 305 305 305 304
313 321 322 322 325 324 320 321 320 318 323 329 324 319 315 318 327 324 316 315 311 309 308 305 303 302 301 301 300 299 298 298 298 298 298 300 300 301 301 302 302 302 303 303 304 304 304 303 303 304 304 303 303 303 303 303 302 302 302 302 302 302 302 303 303 303 303 303 303 303 303 303 302 301 301 301 301 301 301 301 300 300 299 299 299 300 300 300 300 301 301 302 303 303 304 304 303
316 320 319 319 322 323 321 320 320 319 323 329 324 318 316 318 321 318 316 313 310 309 307 304 303 301 301 300 299 298 298 298 298 299 299 300 301 301 301 301 301 301 302 302 302 302 302 302 302 302 302 301 301 301 301 301 301 301 301 301 301 301 301 301 301 301 301 301 301 301 301 302 301 301 301 301 301 301 301 301 301 300 299 299 298 299 299 300 299 299 299 300 300 301 302 302 302
314 317 319 321 322 321 323 322 319 319 323 323 319 316 319 321 318 315 313 308 306 306 305 303 302 301 300 300 299 298 297 298 299 299 300 300 301 301 300 299 299 300 301 301 301 301 301 300 300 300 300 299 299 299 299 299 299 299 299 299 299 299 299 299 300 300 299 299 300 300 300 300 300 300 300 300 301 301 301 301 301 301 300 299 299 298 299 299 299 299 299 299 299 299 300 300 301
313 318 321 323 325 326 325 322 320 323 324 323 318 317 322 324 315 309 305 303 303 304 303 303 302 301 300 299 298 298 297 298 299 299 300 300 299 299 298 298 298 300 300 300 300 299 299 299 298 298 298 297 297 297 296 297 296 296 297 297 298 298 298 297 297 297 297 297 297 298 298 298 298 298 299 299 299 300 300 300 300 301 301 301 300 299 299 299 298 299 299 299 299 299 298 299 299
314 317 319 320 325 326 323 322 322 322 322 322 320 320 323 318 308 304 303 302 301 302 301 301 301 300 299 299 297 297 297 298 298 298 298 298 298 297 297 298 299 299 299 298 297 297 296 296 296 296 295 295 295 294 294 294 293 294 294 295 295 295 295 295 295 295 295 294 294 295 295 295 295 295 296 296 296 297 298 298 299 299 300 300 300 300 300 299 299 298 298 298 299 298 298 298 298
318 316 321 324 323 320 319 321 320 317 318 319 317 319 320 313 308 305 304 303 301 301 300 300 300 299 299 298 297 297 298 298 297 297 297 297 297 297 298 298 299 298 298 297 296 295 294 294 294 293 293 292 292 292 292 291 292 292 292 292 292 292 293 293 293 293 293 292 292 293 293 293 293 293 293 293 293 293 293 294 295 296 297 298 299 299 300 300 299 299 299 298 298 298 298 298 298
320 318 322 322 319 319 320 321 319 317 317 317 315 316 316 314 313 307 305 306 303 301 300 299 298 299 298 298 297 297 298 297 296 297 297 297 297 297 298 298 298 297 297 296 295 293 293 293 293 292 292 291 291 290 290 291 291 291 291 290 290 290 290 290 290 290 291 291 291 291 291 291 291 291 291 291 291 290 290 291 291 292 293 294 295 297 298 299 299 299 299 299 298 297 297 297 297
317 318 318 317 318 322 322 319 319 318 316 316 318 317 315 315 314 310 308 308 305 302 301 300 298 298 298 298 297 297 297 297 297 297 297 297 297 297 298 297 297 297 296 294 293 293 292 292 292 291 291 290 290 290 290 290 290 290 290 289 289 289 289 288 288 288 289 289 289 289 289 290 290 290 290 290 290 290 290 289 289 289 289 290 290 292 293 295 297 298 299 299 298 297 297 297 297
313 315 316 317 318 319 318 318 319 318 315 316 317 317 319 318 313 312 313 308 303 302 301 300 298 298 298 298 297 298 298 298 298 297 297 297 297 297 297 297 297 296 295 294 293 292 292 292 291 290 290 290 290 290 290 290 290 289 289 289 289 289 288 288 288 288 288 288 288 288 288 288 288 288 288 289 289 289 289 289 289 289 289 289 289 289 289 290 291 293 295 297 298 298 297 297 297
315 316 316 316 316 317 317 316 317 317 315 317 316 315 322 320 310 311 313 306 302 302 302 300 298 298 298 298 299 300 300 299 299 298 298 298 298 298 298 297 297 295 294 293 292 292 291 291 290 290 290 290 290 290 290 289 289 289 288 288 288 288 288 288 288 288 288 288 287 287 287 287 287 287 287 287 287 287 288 288 288 288 288 288 288 288 288 288 288 289 290 292 294 295 297 298 298
317 319 318 317 316 316 316 315 315 316 314 316 316 315 320 315 307 308 310 305 302 301 300 299 298 298 299 299 300 301 300 300 299 298 298 298 298 298 297 297 296 294 293 292 291 291 290 290 290 290 290 290 289 289 289 289 288 288 288 287 287 287 287 287 287 287 287 287 287 287 287 287 287 287 287 287 287 287 287 287 287 287 287 288 288 288 288 288 288 288 288 288 289 290 292 294 296
Wind_Speed
5 5 6 3 4 3 4 7 2 2 3 1 3 1 2 2 3 3 4 3 2 1 3 3 3 3 2 1 3 4 5 5 4 2 2 4 2 1 2 4 4 2 2 2 6 9 11 12 13 13 13 12 13 14 15 16 15 14 13 12 12 12 12 12 12 12 11 10 9 8 7 6 6 6 6 6 6 5 5 4 4 3 2 2 3 3 4 4 3 4 3 3 2 1 2 2 2
4 3 4 2 2 4 4 5 2 2 4 3 4 2 1 3 5 4 4 3 2 1 4 5 3 2 2 3 4 4 5 4 3 4 5 4 3 1 2 4 4 3 3 3 5 9 11 12 13 13 13 13 13 13 14 15 15 14 13 13 13 13 13 13 13 12 11 10 10 8 7 6 6 6 6 7 7 7 7 6 5 5 4 2 3 4 4 4 5 4 3 3 3 2 2 2 2
3 1 1 2 3 5 4 3 3 2 4 3 3 3 2 4 4 4 5 4 3 1 3 3 3 2 1 2 2 1 0 3 3 3 5 4 2 1 3 4 4 4 4 4 5 8 11 12 13 14 14 14 14 14 14 15 15 15 15 14 14 13 13 13 13 13 12 11 10 8 7 5 5 6 6 6 6 7 7 8 7 7 5 4 5 6 6 7 7 5 3 2 3 4 4 4 3
3 3 2 2 3 4 3 3 2 4 2 1 0 4 2 5 3 2 2 2 3 2 2 2 1 1 2 3 3 3 0 3 3 1 1 1 1 3 3 4 5 6 5 6 5 6 10 12 13 14 14 14 14 15 15 15 15 15 15 15 14 14 14 14 14 13 12 11 10 8 7 5 5 5 5 5 5 5 5 7 8 8 7 7 7 7 7 9 8 6 4 3 4 5 6 5 5
5 4 4 3 3 2 2 2 1 4 0 3 2 3 0 4 3 3 4 3 3 3 3 2 1 1 3 5 4 1 2 3 0 3 2 2 3 3 3 5 6 6 6 7 6 6 8 12 13 14 15 15 15 15 16 16 16 16 16 15 15 15 15 15 14 14 13 11 10 8 7 6 6 6 5 5 6 4 4 5 8 9 9 9 9 8 9 10 10 9 7 6 5 6 7 6 6
7 6 5 3 3 2 2 2 2 1 4 4 4 3 1 4 4 5 5 5 3 4 4 3 1 2 4 5 4 3 2 2 3 3 2 3 3 3 4 6 6 7 7 8 8 7 7 10 13 14 15 16 16 16 16 16 16 17 17 17 16 16 16 16 15 14 13 12 10 9 8 6 7 8 7 7 7 5 3 3 4 7 9 9 10 10 10 10 10 9 8 7 6 6 7 7 7
6 7 5 3 2 2 3 2 2 3 5 4 5 3 2 4 6 5 4 3 2 2 3 2 2 2 2 3 4 6 6 6 4 2 1 3 4 3 3 5 7 7 8 9 9 8 7 9 12 14 15 16 16 17 17 17 17 17 17 17 17 17 17 17 16 15 14 13 11 10 9 7 8 9 9 9 8 6 4 3 2 4 6 8 9 10 10 9 9 9 8 7 6 6 6 7 7
6 5 4 3 2 3 3 0 3 3 3 2 5 4 5 6 6 3 3 2 1 1 2 2 2 2 1 3 4 6 7 7 3 2 3 3 5 4 3 4 6 7 8 9 10 10 9 9 10 13 15 16 16 17 17 17 17 17 17 17 17 17 17 17 17 16 15 14 13 12 10 9 10 10 11 12 10 9 7 5 5 5 6 8 9 10 10 10 9 9 8 6 6 6 6 6 5
7 4 2 3 2 2 2 2 3 2 2 2 3 7 10 7 5 3 2 3 1 1 3 5 1 1 4 6 6 6 8 8 3 3 3 4 5 5 4 4 4 6 8 9 10 11 10 10 10 12 14 16 16 17 17 17 17 17 17 17 17 17 17 17 17 17 16 15 14 13 11 10 12 12 13 13 12 11 10 8 8 7 8 9 11 11 12 13 11 10 8 6 6 6 5 5 4
5 3 1 2 2 3 4 2 3 3 2 2 4 7 9 6 4 2 2 3 2 2 3 6 2 1 4 6 8 7 7 9 4 3 3 3 5 6 5 5 4 5 6 9 10 11 11 11 11 11 13 15 16 17 17 17 17 17 17 16 17 17 17 17 17 17 17 16 15 14 12 12 14 15 15 14 13 13 11 10 9 9 10 11 13 13 13 13 12 10 7 6 6 5 5 4 3
4 1 0 3 4 2 2 3 4 5 4 2 4 6 8 6 3 2 3 4 6 7 1 5 1 2 4 6 9 8 8 10 5 3 3 2 5 7 7 6 5 5 5 7 9 10 11 12 12 12 13 15 16 17 17 17 18 17 17 17 16 16 17 17 17 17 17 16 16 15 14 14 16 16 17 15 14 13 12 11 10 10 11 12 14 14 13 12 11 9 7 6 6 6 6 5 5
4 2 2 3 1 1 2 3 5 6 5 3 2 4 6 5 3 2 5 5 8 10 3 3 1 3 3 4 7 8 8 9 6 5 5 3 5 8 8 7 7 6 6 7 8 10 11 13 13 13 14 15 16 17 18 18 18 18 17 17 17 16 16 16 17 17 17 17 16 16 16 16 17 18 18 16 15 14 12 11 11 11 12 12 13 13 14 12 10 9 7 7 7 7 7 7 6
4 3 4 2 2 1 2 2 4 4 5 2 1 2 4 3 2 1 4 5 9 7 2 2 4 5 5 7 10 12 11 8 7 8 7 6 8 10 9 8 7 7 9 8 8 9 11 13 14 15 15 15 16 17 18 19 19 19 18 18 17 16 15 15 15 16 17 17 17 16 17 18 19 19 19 17 15 14 12 11 11 12 12 11 11 12 13 10 9 9 8 8 9 9 8 7 6
4 4 3 1 2 2 1 2 2 2 3 3 3 2 3 2 0 2 4 5 9 5 2 6 9 8 6 7 8 8 7 6 8 9 10 10 12 13 11 9 9 9 10 11 10 10 11 12 14 15 17 17 18 18 18 19 20 20 20 19 18 17 16 16 15 15 16 16 17 17 18 20 20 19 19 19 18 15 14 12 11 11 10 10 9 10 10 9 9 9 9 10 11 10 9 8 7
4 5 3 1 3 3 1 3 1 3 2 4 3 1 4 4 1 2 2 3 7 7 8 11 8 5 4 5 7 7 7 9 10 12 14 15 15 15 14 12 10 11 12 13 13 12 12 12 14 15 17 18 19 19 20 20 21 21 21 21 20 19 18 17 17 16 16 16 17 18 19 21 21 20 20 20 20 17 15 14 12 11 10 9 9 8 8 9 10 10 10 11 11 10 9 8 8
4 4 4 2 2 2 1 2 1 3 3 4 3 1 4 4 2 1 3 5 10 13 14 12 9 9 11 14 16 16 16 17 16 17 17 17 17 16 16 14 13 13 14 15 15 15 14 14 15 16 17 18 19 20 20 21 21 22 22 23 22 20 20 19 18 18 17 17 17 18 19 21 22 22 21 21 21 19 17 14 12 11 10 10 10 9 9 9 10 11 12 12 12 10 10 9 8
3 2 4 2 1 1 2 1 3 1 4 4 1 2 3 2 5 4 5 7 13 17 18 17 16 16 19 22 22 21 23 23 21 20 18 17 18 18 17 16 15 15 15 15 16 16 17 16 16 16 17 18 19 20 20 21 22 23 23 24 24 23 22 21 20 19 19 18 18 19 20 21 22 23 23 22 21 19 17 14 12 11 11 12 11 10 10 10 11 12 13 13 12 11 10 9 9
2 2 3 1 2 3 3 1 3 1 3 4 2 5 5 2 8 10 7 8 13 17 23 24 22 22 22 22 20 20 22 23 24 23 20 19 20 20 19 18 17 17 16 16 16 17 18 18 18 17 18 18 19 20 21 21 22 23 24 24 25 25 24 23 22 21 21 20 20 21 21 22 23 23 23 21 20 18 16 14 12 12 13 13 12 11 11 11 12 13 13 13 12 11 11 10 9
2 2 3 3 5 4 5 5 7 4 2 4 5 7 7 5 11 12 7 10 13 12 20 26 27 28 23 19 16 15 17 18 21 23 23 23 22 22 21 20 20 19 17 15 14 15 17 18 19 19 18 18 19 21 21 22 22 23 24 25 25 26 26 25 24 24 23 23 22 22 23 24 24 24 23 22 20 19 17 15 13 13 14 15 14 13 12 12 13 14 14 14 13 12 11 11 10
5 4 2 6 6 5 11 11 11 9 4 4 5 7 9 10 13 12 8 11 11 9 15 20 26 31 27 23 20 20 22 20 18 19 21 22 22 21 21 23 23 21 17 15 14 14 15 16 17 19 18 18 20 21 22 22 22 23 24 25 26 26 27 27 26 26 25 25 24 24 24 26 26 26 24 23 22 20 19 17 15 14 16 16 16 14 13 14 14 15 15 15 14 13 12 12 11
5 6 4 7 4 4 10 14 15 12 7 5 6 8 10 13 13 12 12 9 7 13 19 19 25 32 32 29 26 25 25 22 19 19 20 21 22 21 21 24 24 21 18 17 16 15 15 14 15 17 19 20 20 21 22 23 22 23 24 25 26 27 27 28 28 28 28 27 26 26 26 26 27 27 26 25 24 23 21 19 17 16 17 18 17 16 15 15 15 16 16 16 15 14 14 13 12
4 6 10 10 7 4 10 15 16 14 11 8 7 7 10 13 13 15 13 7 11 21 26 23 27 32 33 32 30 28 27 25 22 20 20 22 23 23 23 24 23 20 19 18 17 15 15 14 14 15 17 20 21 21 22 23 24 24 24 25 26 27 27 28 28 29 30 29 28 27 27 27 28 28 28 27 26 24 23 21 18 17 18 19 19 17 16 15 16 17 16 17 16 15 15 14 13
5 5 10 14 12 7 13 17 17 16 12 10 8 8 12 12 13 18 15 16 25 30 30 28 29 31 32 33 32 31 29 26 24 21 21 22 23 24 24 24 22 20 19 18 18 17 17 16 15 15 16 18 20 21 22 23 25 25 25 25 26 26 27 27 28 28 30 30 30 29 29 29 29 30 29 29 27 25 24 22 20 18 18 20 20 19 17 16 17 17 17 18 17 16 16 15 14
9 4 6 10 12 11 16 18 16 15 13 14 13 11 13 11 10 15 19 27 32 30 29 29 28 28 29 30 29 28 26 23 22 21 21 22 23 24 23 22 20 19 19 19 19 20 20 19 18 18 17 17 18 19 22 23 24 25 25 26 26 26 27 27 27 26 27 29 31 31 30 30 30 31 31 29 28 27 25 24 23 20 19 20 21 21 19 18 18 18 19 20 19 18 17 16 15
6 3 4 6 10 13 17 18 18 20 21 20 17 14 15 17 15 14 24 31 28 25 26 26 25 24 23 23 23 22 21 19 20 22 22 23 23 23 22 20 17 16 18 18 19 19 20 20 20 20 20 18 18 18 21 22 24 25 26 27 27 26 27 27 27 26 25 27 30 32 32 31 32 32 32 30 29 28 27 26 25 23 21 21 23 22 21 19 19 19 20 21 20 20 18 17 17
2 3 6 8 11 16 19 20 23 25 25 21 13 13 19 21 14 12 24 28 25 27 27 25 24 23 22 21 21 19 19 19 21 22 21 20 19 19 19 16 14 15 16 16 17 18 18 19 20 21 21 19 18 18 19 21 23 25 26 27 27 27 27 27 27 27 26 25 27 29 31 32 33 33 33 32 31 30 29 28 27 26 23 23 24 24 22 21 20 21 22 22 22 21 19 18 18
6 8 10 12 15 20 23 22 27 25 22 21 11 13 21 16 4 8 22 24 25 29 26 23 22 22 22 20 19 19 19 18 18 18 15 15 12 10 11 11 11 12 13 13 14 15 16 17 18 19 19 19 18 18 18 18 21 23 25 27 27 28 28 27 27 27 27 26 25 26 28 29 30 32 33 33 32 31 30 29 28 28 26 24 24 24 24 23 22 22 23 23 23 22 20 20 20
8 10 10 14 15 21 25 21 27 19 11 18 13 12 19 7 2 12 23 23 21 25 25 23 20 18 19 18 19 19 17 15 14 13 9 8 6 4 6 7 8 11 12 13 12 11 12 13 15 16 17 17 17 17 17 17 18 20 23 26 27 28 28 28 28 28 28 27 26 26 26 26 27 29 31 32 31 31 31 30 28 28 27 25 25 25 25 25 24 23 24 24 24 23 22 22 22
10 7 4 11 9 12 21 18 21 13 5 13 9 5 12 3 7 15 20 20 19 25 29 28 25 21 20 21 21 15 10 8 8 6 3 3 2 1 3 4 7 9 10 11 11 10 8 9 11 12 13 14 15 15 15 15 16 18 20 23 25 27 28 28 28 29 28 27 26 26 26 26 26 27 28 30 30 30 31 30 28 27 27 27 25 25 26 26 26 25 25 25 26 26 25 24 25
8 3 2 5 6 6 16 13 12 7 5 10 10 2 8 6 11 15 17 19 21 26 30 32 30 26 24 23 15 6 5 4 2 4 4 2 1 1 3 4 6 8 8 9 9 10 10 9 8 11 12 12 12 12 13 13 14 16 18 21 23 25 26 27 28 28 28 27 27 27 27 27 26 27 28 29 30 30 31 31 29 28 28 28 26 25 26 27 27 27 27 26 27 28 28 27 27
4 1 2 1 2 5 12 9 1 2 4 11 11 3 7 7 14 18 18 20 22 25 29 32 30 27 25 17 6 5 8 7 6 6 3 1 1 4 5 6 8 10 12 12 11 11 13 11 7 8 10 9 10 10 11 11 12 13 15 18 21 23 24 25 25 26 27 28 28 28 28 27 27 27 28 30 31 31 32 32 31 29 29 29 27 26 27 27 28 28 28 27 28 29 29 28 28
1 0 3 2 3 5 11 9 3 4 3 6 6 3 6 7 14 20 21 22 24 24 25 28 28 25 18 7 5 8 9 8 6 5 2 2 3 6 7 9 10 13 15 14 12 11 11 10 7 5 6 7 8 8 10 10 11 13 14 16 18 21 22 23 23 23 24 26 27 28 28 27 27 27 28 30 31 32 33 33 32 31 30 29 28 27 28 28 28 28 28 28 28 30 31 30 29
2 2 4 3 3 3 6 7 3 5 4 2 3 3 4 5 11 21 24 26 28 22 20 25 23 16 8 9 10 10 9 7 6 6 5 4 6 9 10 11 12 13 15 13 11 10 10 10 9 7 7 7 8 8 8 10 11 13 14 14 15 17 19 20 21 21 22 23 25 26 26 27 27 28 29 30 31 32 33 33 33 32 31 29 29 29 29 29 29 29 29 29 29 30 31 31 31
3 2 3 4 4 2 3 6 4 4 5 2 4 4 6 6 11 23 26 28 29 21 21 23 13 8 12 13 12 12 10 9 10 10 8 7 8 9 9 9 9 9 9 9 8 8 9 9 10 9 9 9 9 9 9 10 12 13 13 13 14 14 16 17 18 18 20 21 22 23 25 26 27 28 28 29 30 32 33 33 33 32 31 31 31 32 31 31 31 31 31 30 29 30 31 32 31
4 4 3 4 3 2 5 5 2 1 0 4 4 5 8 8 12 20 27 31 25 20 22 14 8 14 14 15 15 14 13 13 13 11 8 7 7 7 5 4 4 3 3 3 4 6 8 8 9 9 9 8 8 8 9 9 11 12 13 13 13 13 14 16 17 17 18 19 20 22 23 24 25 26 26 27 28 30 32 33 33 33 33 33 33 33 33 33 33 33 32 32 30 30 31 32 31
7 6 4 4 4 5 6 6 3 2 4 6 6 6 6 8 10 14 28 30 19 18 14 7 15 16 17 17 17 16 16 17 14 10 7 6 4 4 3 3 3 2 2 3 3 5 6 6 7 7 6 7 7 8 8 9 9 10 11 12 12 13 13 14 15 16 17 18 19 20 21 22 23 23 24 25 26 28 30 31 32 33 34 34 34 35 35 35 34 34 33 33 32 31 31 32 32
6 4 4 4 5 5 5 5 4 1 2 6 6 4 5 9 8 14 29 25 14 11 4 15 16 17 19 19 19 19 19 18 14 11 11 10 9 9 9 8 8 7 6 6 5 5 4 4 4 4 6 6 7 8 7 7 7 7 8 9 9 10 11 12 13 14 16 17 18 19 20 21 22 22 22 24 26 27 28 29 30 32 33 35 35 35 35 35 35 34 33 33 32 32 32 33 33
5 4 4 4 4 6 6 5 4 1 1 5 4 3 6 9 8 17 25 13 6 1 12 15 15 19 19 20 21 20 20 18 16 16 16 16 16 16 16 16 15 14 14 12 11 9 6 4 4 4 5 4 5 5 5 6 5 5 4 4 3 4 5 6 7 10 13 15 17 18 19 20 21 21 21 22 23 24 25 26 27 29 31 33 34 35 35 35 35 34 34 34 33 33 33 33 35
5 3 2 3 4 3 6 6 3 2 1 4 5 4 7 10 9 17 16 5 7 8 15 15 17 20 19 20 21 20 21 20 20 22 21 21 22 23 23 24 24 23 23 21 20 17 14 13 12 11 8 7 7 6 5 5 5 4 3 3 2 1 1 1 2 4 6 8 11 14 16 17 18 19 19 20 21 20 21 22 24 26 28 31 32 34 35 35 35 35 35 35 34 34 33 34 36
3 2 1 5 4 0 3 5 4 2 2 4 5 4 6 7 8 10 5 14 15 16 19 18 19 22 21 21 21 22 23 23 25 25 25 25 26 28 29 30 30 30 30 30 29 28 26 24 21 20 18 16 15 13 11 9 6 4 2 2 1 1 1 2 2 2 3 4 7 10 13 15 16 17 17 17 18 17 18 20 22 24 26 28 30 32 33 34 35 36 36 36 36 35 35 36 37
3 4 4 5 5 5 6 4 3 4 4 1 2 4 5 5 8 6 5 14 14 16 19 19 20 21 22 23 23 24 24 25 27 27 27 28 29 31 32 33 33 33 34 33 33 32 31 29 27 25 25 24 23 22 20 17 14 10 7 4 2 1 1 2 2 1 1 1 3 5 8 10 11 11 11 12 12 13 15 18 21 23 25 27 29 30 31 32 33 34 35 36 37 37 37 37 37
4 4 8 9 8 7 6 2 4 4 5 3 3 3 6 5 6 7 3 6 7 9 13 15 17 18 21 23 23 24 24 25 27 28 28 28 30 32 32 33 33 34 34 33 32 32 31 29 28 26 26 26 26 26 24 22 21 18 15 11 9 8 8 9 8 6 6 5 4 2 2 3 4 5 6 7 8 10 12 15 18 20 22 24 26 28 30 30 31 32 33 35 36 36 36 38 39
3 4 6 7 6 5 5 2 3 1 3 3 3 1 6 5 3 8 6 5 6 6 8 10 13 16 19 22 22 22 23 24 26 28 27 28 30 30 31 32 32 32 31 30 29 29 28 27 26 25 25 25 25 24 23 22 22 21 18 16 14 12 11 11 10 8 7 7 7 5 5 4 3 4 3 4 5 7 9 11 14 17 19 22 24 26 28 29 29 30 31 33 34 35 36 38 40
3 5 4 5 5 5 4 4 2 3 2 4 2 3 5 5 4 11 7 6 5 4 6 7 11 14 17 20 21 21 22 22 26 27 27 27 28 29 30 29 29 29 27 27 27 27 26 26 25 24 24 24 24 23 22 21 21 20 18 17 15 13 12 11 10 9 8 7 7 6 6 6 5 4 4 4 4 4 6 8 10 13 16 19 21 24 25 26 27 28 29 31 33 34 36 38 39
5 5 4 5 5 5 3 5 2 2 2 4 5 4 3 5 5 9 4 6 5 5 5 5 9 14 16 19 19 20 20 21 24 27 27 27 27 27 27 27 26 26 25 26 26 25 25 24 23 22 22 23 23 22 21 21 20 19 18 16 15 14 13 12 10 9 9 8 8 8 8 8 7 6 6 6 6 6 5 6 7 9 12 15 18 20 23 24 26 27 28 30 31 33 34 36 38
4 4 4 5 3 3 4 4 3 2 2 4 6 5 3 4 6 5 2 5 6 5 5 6 11 15 16 18 18 18 19 20 22 24 26 26 25 26 25 24 24 23 24 24 23 23 22 22 21 20 21 22 22 21 20 20 19 18 17 16 14 14 13 12 11 10 10 9 9 9 8 8 8 8 7 7 7 7 7 6 6 7 8 10 13 16 19 22 24 26 28 29 30 32 33 34 37
4 5 5 6 5 4 4 2 4 3 3 6 8 8 6 4 6 4 2 4 8 8 6 7 11 15 17 16 17 18 19 21 21 22 24 25 24 23 22 22 21 21 21 20 21 21 20 20 19 19 20 20 20 19 19 19 18 18 17 15 14 13 13 12 11 11 11 11 10 11 10 9 8 8 8 8 8 8 8 7 7 7 7 8 10 13 15 18 20 23 25 28 29 31 32 33 35
5 5 4 4 4 4 5 4 4 2 5 7 7 8 8 5 5 5 2 1 9 11 9 11 12 15 18 16 16 17 18 21 21 21 23 23 22 21 19 20 19 18 18 18 19 19 18 18 17 17 17 17 17 17 17 17 16 17 16 15 15 15 14 13 13 13 12 13 13 13 12 11 10 9 9 9 10 10 10 9 9 9 9 8 9 10 12 14 16 19 22 25 27 29 31 32 34
5 4 5 3 2 3 2 2 0 3 6 6 4 3 4 6 7 5 3 4 2 6 9 15 17 18 19 17 16 17 18 21 21 21 21 20 20 19 18 17 16 16 16 17 18 17 16 16 14 15 15 15 15 14 14 14 13 14 14 14 14 14 14 14 14 14 14 14 14 14 14 14 13 12 12 12 12 12 11 11 10 10 10 10 10 11 11 13 14 17 19 21 24 26 28 30 33
5 4 5 4 2 1 3 4 2 3 5 6 4 0 1 4 5 4 4 6 6 14 18 20 21 21 20 18 16 16 17 19 20 19 18 18 17 17 16 15 14 14 15 16 16 15 14 14 13 13 13 13 12 12 12 11 11 12 12 12 13 12 13 13 13 13 13 13 13 14 14 14 14 14 14 14 14 13 12 12 11 10 10 11 12 12 12 13 14 15 17 19 21 23 25 27 30
5 5 6 5 4 4 4 4 3 3 4 5 4 1 2 3 2 4 6 10 15 22 25 23 22 21 19 18 17 17 17 17 17 16 16 16 15 15 14 12 12 13 14 14 13 12 12 11 11 11 11 11 11 11 11 11 11 11 11 11 11 12 12 12 12 12 12 12 12 12 13 13 13 14 14 14 14 14 13 13 13 13 12 12 12 12 12 13 14 15 17 18 19 20 22 24 27
3 3 4 2 4 5 2 3 5 3 2 4 3 2 4 3 3 5 8 13 16 19 22 22 21 19 18 17 16 17 17 16 15 14 14 14 13 12 11 10 11 13 13 13 12 11 11 11 11 11 11 10 10 10 10 11 11 11 11 11 11 10 10 10 10 11 12 12 13 13 13 13 14 14 14 14 14 14 14 14 14 14 14 14 14 14 13 12 13 15 16 18 19 19 20 23 24
1 2 2 5 4 6 2 4 1 2 2 4 3 4 4 0 2 4 7 9 10 11 14 17 17 17 17 15 15 17 17 16 14 13 12 12 11 10 8 8 10 11 11 11 10 10 10 10 10 10 11 10 10 10 10 11 11 11 12 12 11 10 9 8 8 9 10 11 12 12 13 14 14 15 16 17 18 18 17 17 16 16 15 15 16 16 16 15 15 15 16 17 18 18 20 22 23
4 3 4 3 0 3 3 1 2 2 4 4 4 6 5 3 2 1 5 5 5 4 7 11 13 15 15 15 16 17 16 15 13 11 11 10 9 7 6 7 8 8 8 8 8 8 9 9 10 10 9 10 10 10 10 11 12 13 13 12 12 11 10 10 9 8 8 9 9 10 11 12 13 15 17 18 20 20 21 21 20 20 19 19 18 17 18 18 18 18 18 18 18 18 20 21 22
4 4 3 1 1 1 0 1 1 4 5 4 5 7 5 4 4 3 4 6 7 6 6 7 9 13 16 17 17 17 16 14 12 11 10 9 7 5 4 5 5 6 6 6 6 7 7 8 8 9 9 10 10 11 12 13 13 14 13 13 13 12 12 12 12 12 11 11 11 11 11 11 12 13 14 16 18 20 21 22 23 24 24 24 23 22 21 20 20 20 21 20 20 19 20 22 21
2 1 2 1 3 3 2 2 3 3 5 5 5 5 4 4 4 5 8 9 9 8 7 6 10 16 19 20 19 18 16 14 12 11 10 8 6 3 2 3 3 3 3 3 4 4 5 6 7 8 9 9 10 11 13 14 14 14 14 14 14 14 14 14 14 14 14 14 15 15 14 14 14 14 14 15 16 18 19 21 23 24 25 26 27 27 26 25 24 23 22 23 23 22 22 23 22
1 1 2 1 1 1 1 2 3 3 4 4 5 5 4 3 2 3 7 9 10 10 9 8 13 18 19 20 20 17 15 12 11 11 9 7 5 2 1 0 0 0 0 1 1 2 3 5 6 7 8 9 11 12 13 14 15 15 15 16 16 16 17 17 17 16 17 17 17 17 17 18 17 17 18 18 18 19 20 21 22 23 24 26 27 28 29 30 30 28 27 25 25 25 26 26 25
3 2 2 3 2 1 3 4 3 3 3 4 5 6 5 3 2 2 2 5 7 10 10 9 14 18 20 20 19 16 12 11 12 12 10 8 6 4 3 2 2 1 2 2 1 1 2 3 5 6 8 10 11 12 13 14 15 15 16 17 17 18 18 19 20 20 20 20 21 21 22 22 22 22 22 22 22 22 22 23 24 24 25 25 26 27 28 30 31 32 32 30 28 27 27 28 28
Wind_Direction
318 320 311 305 337 345 14 14 32 351 59 58 309 94 302 306 116 60 57 76 71 57 9 350 300 294 301 301 245 253 241 213 190 150 179 202 131 78 347 330 284 266 300 221 201 202 199 197 199 201 205 208 207 209 213 217 218 218 214 207 198 192 188 187 185 182 182 183 185 184 182 183 186 193 199 210 214 216 221 224 230 220 188 140 118 130 154 163 194 205 214 219 220 214 166 156 157
338 341 310 274 19 13 359 16 68 358 43 35 316 121 308 348 58 71 93 106 157 220 344 358 347 315 283 284 272 284 274 226 178 138 151 154 120 122 331 317 286 246 253 241 214 211 206 202 201 202 206 208 207 208 212 216 218 219 218 211 202 196 193 190 188 187 188 190 195 194 193 198 203 209 214 219 221 220 220 222 225 222 208 172 155 168 174 184 208 209 217 230 219 227 224 205 208
13 34 263 200 59 12 342 29 85 67 65 68 301 292 22 48 68 124 131 136 158 45 12 28 347 335 344 314 262 258 316 123 111 118 138 141 130 307 296 287 266 242 239 240 227 219 214 209 205 205 208 208 208 208 212 218 221 222 221 217 210 204 200 197 195 194 195 197 203 205 205 213 222 224 231 234 230 222 219 221 221 220 207 179 175 182 194 206 212 212 218 226 225 238 244 239 238
77 82 109 126 60 15 11 55 118 106 79 128 14 314 29 87 73 130 107 117 137 56 49 67 339 298 350 317 281 267 274 104 92 26 126 142 287 304 279 252 247 232 226 237 237 230 221 216 211 209 211 210 211 211 213 217 222 225 224 222 217 213 210 206 204 204 205 207 208 210 214 223 227 226 235 241 232 217 218 224 221 222 207 187 187 189 201 214 223 232 245 248 248 257 259 258 260
104 97 92 74 49 8 65 60 80 85 323 189 127 300 357 100 68 12 26 103 127 59 65 73 359 289 291 280 281 280 147 132 125 311 334 350 323 310 272 245 242 225 222 233 240 241 226 221 219 215 215 214 213 215 217 218 220 224 226 227 225 224 219 216 214 214 216 216 214 214 218 219 216 218 227 234 225 214 220 217 211 214 204 194 196 199 210 224 235 242 257 266 261 270 270 267 269
104 99 87 58 37 340 72 59 336 331 244 168 134 260 150 99 83 30 40 107 109 60 67 79 43 310 286 279 271 242 204 229 267 291 336 1 353 330 279 255 244 228 219 227 238 245 236 226 222 221 220 219 218 218 220 221 221 223 227 229 230 230 227 225 223 222 222 220 216 215 219 213 209 212 225 239 225 211 217 197 192 200 196 196 201 212 227 237 245 250 262 273 271 268 268 267 269
87 76 53 38 25 6 88 128 246 237 251 164 144 208 136 91 81 39 21 82 112 84 72 71 16 329 287 311 280 258 251 253 255 249 309 359 10 352 304 268 252 236 219 221 232 242 245 235 225 225 226 225 225 223 223 224 224 225 227 230 232 232 231 230 227 226 224 220 216 216 215 209 211 211 222 238 231 227 234 224 221 209 204 209 214 225 239 249 257 266 276 283 281 272 266 265 266
67 50 35 49 36 23 81 173 249 205 257 217 143 121 94 89 80 41 341 12 192 178 113 143 7 26 302 318 306 277 245 233 227 240 286 327 357 352 330 297 260 247 230 221 225 235 243 245 234 228 229 230 231 230 229 228 228 228 228 229 232 233 233 232 230 229 226 222 219 218 214 208 215 216 220 230 233 241 250 248 243 238 235 233 236 243 252 263 269 278 287 288 284 279 268 262 260
64 41 38 65 47 14 7 318 287 250 269 304 96 94 90 90 79 73 319 335 351 214 164 174 100 45 292 309 308 290 240 225 224 266 294 316 337 345 334 318 278 261 245 230 224 227 234 244 245 236 233 233 235 235 235 234 233 232 231 230 230 231 232 232 231 231 229 224 222 222 217 212 216 217 221 227 231 241 253 259 256 252 252 250 250 251 254 261 268 275 280 277 275 272 260 252 243
60 45 48 78 59 18 348 311 289 308 307 27 73 91 92 88 76 80 295 326 353 327 187 175 165 210 288 304 298 294 239 224 228 258 280 314 332 342 335 317 296 281 256 246 234 228 230 238 246 245 240 238 238 238 238 238 238 237 235 232 230 228 229 231 230 231 231 229 227 226 219 212 215 218 224 229 233 240 250 260 266 267 264 264 260 255 254 255 259 262 260 256 256 251 237 222 200
38 13 29 69 47 22 315 299 290 294 299 1 64 78 86 79 52 14 356 352 342 352 87 178 200 302 289 278 287 293 241 234 248 252 247 299 326 333 332 314 298 290 268 259 248 238 232 233 240 245 246 244 243 240 239 240 241 240 239 237 233 230 229 229 229 229 231 232 230 227 218 212 214 222 229 231 233 239 250 262 271 274 269 267 263 257 255 252 252 249 238 238 233 219 205 190 175
19 342 49 82 103 215 225 280 294 300 326 355 26 58 78 60 34 11 16 358 333 354 40 148 352 324 295 267 293 291 249 246 260 245 241 274 309 321 323 311 300 288 275 266 257 249 240 237 237 240 244 247 248 245 242 241 241 242 241 241 239 235 232 229 228 228 230 232 232 226 218 213 215 224 234 233 234 242 252 264 272 271 263 258 259 256 254 251 247 237 225 224 214 199 188 180 177
12 12 69 108 216 257 277 282 304 327 349 349 225 81 77 54 60 12 359 343 323 341 77 100 336 318 289 276 287 280 262 260 262 247 249 274 297 308 311 305 296 284 279 271 262 255 247 243 238 238 240 244 248 248 246 243 242 243 242 242 242 240 237 232 229 228 229 231 231 226 217 213 216 224 235 237 238 247 257 265 270 266 255 247 250 251 251 247 236 226 217 211 198 188 183 181 184
19 10 83 161 312 345 300 292 331 34 327 278 194 137 62 28 73 303 333 321 311 311 260 304 315 307 290 283 281 272 272 273 260 251 262 280 291 300 304 297 288 279 278 275 268 259 252 247 242 239 238 240 243 246 247 245 244 244 242 241 241 242 240 239 235 231 231 231 230 226 216 213 217 223 232 239 244 251 261 269 270 263 250 240 240 242 243 235 222 217 208 200 191 185 184 184 187
19 1 78 111 343 343 275 234 198 97 275 248 179 156 32 14 319 287 323 291 293 291 288 305 306 282 288 291 278 281 296 290 274 269 277 287 292 299 300 294 286 279 275 274 272 264 256 250 245 242 239 238 239 241 244 246 247 246 244 241 240 240 240 241 241 238 235 234 232 227 217 214 219 224 228 237 246 254 261 269 271 260 245 237 232 231 232 221 213 209 201 195 191 186 185 186 189
23 4 64 57 332 340 271 242 70 75 277 244 172 34 29 26 26 279 293 288 287 290 289 292 282 271 278 279 288 297 294 287 283 281 284 291 296 300 298 294 288 282 276 272 271 267 260 253 248 245 243 241 241 241 242 244 246 248 246 243 240 239 238 239 241 241 239 238 235 229 219 216 220 225 229 236 245 254 260 264 266 258 246 238 229 225 222 214 211 205 197 195 193 189 187 190 195
40 40 66 13 268 217 250 318 21 98 263 274 203 36 49 8 5 330 300 291 285 294 295 290 283 279 278 283 298 303 292 285 282 282 285 290 292 294 296 295 291 288 283 272 267 265 262 257 251 248 247 245 244 243 243 243 244 246 247 245 242 239 237 237 238 239 239 238 237 231 223 219 219 224 231 237 245 252 256 258 259 255 246 238 231 226 223 216 211 203 197 198 197 194 192 195 201
78 86 97 279 224 202 217 229 324 234 238 310 355 25 37 8 348 337 314 286 281 292 293 292 291 287 286 291 299 299 295 290 283 281 283 286 288 291 295 296 296 296 289 277 266 260 260 260 257 252 250 249 248 246 245 245 244 244 244 244 244 241 239 236 236 236 236 237 236 234 227 221 222 227 234 241 248 253 256 257 255 250 241 237 232 228 227 221 214 206 202 202 202 198 197 202 209
167 125 128 232 210 235 284 314 335 351 298 335 6 0 359 334 327 330 311 281 284 286 287 292 295 295 297 298 295 298 309 305 293 286 282 285 287 290 295 297 300 301 294 286 277 267 262 261 260 257 253 251 252 250 248 247 246 244 243 242 243 243 242 240 237 235 235 235 235 235 230 225 227 233 238 245 251 255 257 258 257 248 238 235 232 227 228 226 220 212 208 209 208 204 202 208 214
203 157 150 241 222 270 299 315 327 338 340 360 2 330 323 312 314 317 291 282 287 266 270 283 289 295 301 300 295 298 306 308 301 293 285 285 285 287 292 296 301 303 300 294 289 281 272 264 263 262 259 254 253 253 252 250 248 246 244 241 242 243 244 244 241 238 236 235 234 234 232 230 232 236 241 246 250 253 255 256 254 247 237 234 231 227 226 228 224 217 214 215 215 209 208 213 218
188 167 185 233 235 288 289 304 315 319 333 341 329 323 314 307 306 296 284 292 287 263 266 270 279 290 296 297 298 300 302 302 299 295 291 290 289 289 291 296 301 303 302 297 291 287 283 278 271 267 263 257 253 252 253 253 252 249 246 243 242 241 242 243 243 241 239 236 234 233 232 232 234 238 241 245 247 250 252 253 252 246 239 236 233 228 226 229 227 222 219 220 219 213 212 216 220
180 205 216 233 251 276 281 298 307 305 314 315 316 322 305 303 297 284 280 270 266 275 280 279 280 288 291 293 297 298 297 297 297 296 293 294 293 292 293 296 298 299 300 298 297 295 291 289 286 278 270 263 257 254 254 255 255 253 250 247 245 243 242 242 242 241 240 239 236 233 231 232 235 237 240 244 246 249 251 252 251 246 241 238 236 233 230 231 231 228 223 223 222 217 215 217 221
210 254 233 241 252 266 286 297 303 300 302 300 304 302 296 299 293 287 280 266 275 286 289 286 286 289 290 291 292 293 294 295 297 298 295 294 292 292 293 294 295 296 295 296 299 299 295 294 294 288 281 275 267 260 256 254 255 255 254 252 250 248 246 244 243 242 241 240 238 236 233 233 235 238 240 243 245 247 249 251 250 246 242 240 239 236 234 234 233 229 225 226 226 221 219 219 223
208 270 257 253 264 276 290 298 304 302 297 296 300 295 286 281 283 293 288 283 289 296 297 292 291 293 293 291 291 293 295 296 299 302 302 297 294 293 292 291 293 293 292 296 300 298 295 295 294 289 285 284 278 268 260 256 256 256 256 253 252 251 250 248 247 245 244 242 240 238 236 236 238 241 242 244 245 247 248 250 250 247 243 241 241 238 236 236 235 229 226 230 230 226 224 222 224
202 257 284 292 294 293 297 301 298 294 292 294 297 285 272 270 274 283 284 291 303 308 305 301 297 297 293 290 294 300 299 297 301 308 307 302 299 295 289 287 288 291 295 300 300 297 295 294 290 287 286 286 284 275 265 260 257 257 257 255 255 255 254 254 253 250 248 246 244 241 239 238 240 243 245 246 248 249 249 250 251 249 245 242 241 240 238 238 238 233 228 232 233 231 229 226 226
273 319 327 328 313 307 306 300 292 288 286 286 287 278 273 274 277 276 278 292 314 312 305 304 301 296 292 291 293 298 298 298 307 312 308 304 303 297 287 282 281 287 296 299 298 296 294 291 287 287 288 288 285 279 271 265 260 258 258 258 258 258 258 258 257 255 253 251 248 246 243 242 243 245 247 249 251 252 251 251 251 251 247 243 242 242 241 240 240 237 232 233 236 234 232 230 230
322 337 333 314 306 307 301 293 288 285 283 278 264 266 273 272 276 270 280 301 319 312 308 309 307 299 297 301 299 299 303 309 317 317 308 304 312 304 282 271 269 271 275 279 286 292 291 287 286 288 287 287 286 282 277 270 263 260 260 260 259 258 259 259 258 257 256 254 252 250 248 246 246 248 249 251 252 253 253 252 252 252 248 244 244 245 243 241 240 240 236 235 239 238 234 232 234
323 336 335 305 306 306 293 285 283 280 278 270 242 253 275 275 192 253 280 307 319 313 314 314 313 310 309 318 319 316 318 323 321 315 314 321 339 324 277 266 265 262 259 257 262 272 282 287 287 288 287 284 284 283 279 273 268 264 261 259 258 259 259 258 259 259 258 257 255 253 253 251 250 250 250 251 252 253 254 254 254 255 251 243 243 245 245 242 241 241 238 235 237 237 234 233 236
320 325 338 300 319 308 284 278 275 260 239 260 223 247 287 261 217 253 285 306 312 313 311 307 310 314 315 322 325 327 339 339 323 325 6 41 52 14 281 270 263 260 258 256 255 257 268 289 289 287 286 281 280 281 279 275 271 266 262 259 258 257 257 257 258 259 260 259 258 257 256 256 255 255 254 253 253 253 255 255 255 257 255 246 243 245 246 245 242 241 240 235 235 235 233 233 235
313 310 136 292 347 310 277 281 275 248 205 218 171 187 285 249 245 269 296 300 303 307 302 301 307 312 315 319 321 347 46 40 30 60 74 75 101 251 267 258 256 260 264 265 266 266 268 276 285 284 280 277 278 277 276 273 269 266 262 260 258 256 255 255 255 256 257 257 258 258 258 258 258 258 257 255 254 254 255 256 256 259 259 251 245 246 248 248 246 244 242 238 236 236 236 235 237
294 338 130 281 357 280 283 296 278 119 183 181 156 219 263 266 277 285 296 296 298 296 294 300 306 311 318 324 334 72 78 79 80 79 77 26 296 270 274 268 264 264 269 273 272 271 266 258 258 274 277 275 276 274 272 272 270 265 261 259 257 256 255 254 253 253 253 255 256 257 258 259 259 259 259 258 257 256 256 257 258 262 262 255 251 250 250 251 249 246 244 241 237 237 238 237 238
275 166 296 297 171 259 298 297 203 156 198 177 159 236 262 273 280 289 298 299 296 290 292 302 308 315 329 359 88 99 86 83 84 80 73 355 307 290 287 283 277 272 274 278 274 265 256 244 234 247 259 263 266 265 265 264 263 259 256 256 255 254 254 254 254 253 252 252 253 255 256 258 258 258 259 259 258 257 258 259 261 264 262 258 257 257 254 253 252 249 247 243 240 239 240 240 240
319 185 249 258 209 256 304 306 260 163 144 199 222 233 275 275 276 292 302 301 296 295 298 305 314 333 30 85 98 95 83 77 71 53 31 345 312 299 293 289 286 281 279 281 275 260 247 238 234 230 223 231 237 236 246 251 252 251 248 248 248 249 251 252 253 253 252 251 251 253 254 255 256 257 258 259 259 258 259 260 262 264 262 261 263 262 258 256 254 252 250 246 243 240 241 242 243
302 223 224 240 229 230 271 310 319 123 120 238 252 230 257 270 279 288 297 299 297 301 308 314 336 54 90 92 85 76 65 56 44 32 14 341 316 308 305 300 295 289 283 281 272 254 240 233 234 229 217 221 223 213 216 228 237 242 242 241 242 243 244 246 249 250 251 251 252 252 252 254 254 255 257 259 260 259 260 261 263 264 262 263 264 263 260 258 255 254 252 250 246 243 241 243 244
229 235 238 263 259 248 260 276 281 111 66 256 248 248 257 274 280 281 288 291 293 304 311 327 63 96 95 88 83 72 63 57 43 32 14 346 328 322 323 319 306 292 271 250 237 229 225 222 226 226 215 213 211 198 195 207 221 231 235 236 236 236 236 238 242 244 249 251 253 253 252 252 252 255 257 259 260 260 261 262 263 263 263 263 263 261 259 257 256 255 254 253 250 246 244 243 243
212 227 219 241 257 266 261 258 260 264 284 265 246 251 260 274 278 283 287 288 298 311 319 61 94 94 91 87 82 76 69 62 52 46 37 26 26 32 45 58 73 104 123 141 163 189 198 197 205 201 180 171 171 168 175 189 201 214 225 230 232 235 235 236 239 241 246 249 250 252 252 252 252 253 256 258 259 260 262 263 264 264 264 262 261 260 259 260 260 259 258 256 252 248 245 242 239
231 241 240 239 240 265 270 273 287 152 255 265 248 254 273 276 282 284 284 293 317 315 42 93 92 89 88 86 81 77 73 68 66 67 68 70 72 76 84 88 94 101 105 112 124 134 147 159 170 157 138 137 142 141 145 156 168 184 202 211 217 223 225 228 231 236 241 244 246 248 250 252 253 253 254 255 257 260 262 263 264 264 263 262 261 261 263 263 263 262 261 258 254 251 247 243 240
232 217 239 262 247 263 273 274 280 133 178 268 280 325 289 279 284 282 285 308 348 190 117 101 96 92 88 87 84 81 81 80 80 78 78 80 80 83 86 90 92 90 87 88 90 93 96 96 88 95 107 111 107 106 108 113 119 123 140 162 178 201 210 215 220 229 236 240 245 248 251 252 254 255 256 257 258 260 261 261 262 262 263 263 263 263 262 262 261 261 259 257 254 252 249 246 243
222 188 181 265 258 284 293 294 313 79 137 266 300 318 282 279 273 282 296 40 79 110 117 112 107 99 90 89 87 88 88 84 82 80 80 82 83 85 86 86 86 85 84 83 83 83 80 75 71 75 79 75 69 65 65 77 94 108 112 111 102 94 108 189 222 229 236 238 243 249 253 256 259 261 260 258 255 253 252 255 258 259 261 263 263 263 261 260 260 260 259 258 256 253 249 246 244
237 203 211 270 265 265 278 298 327 315 238 241 286 294 274 279 270 289 2 97 99 96 104 103 102 99 95 94 92 91 89 85 84 81 81 84 85 85 85 85 84 85 85 83 82 81 78 76 74 76 76 74 72 67 63 62 65 86 116 147 169 189 207 244 245 234 232 227 234 242 247 251 253 255 253 251 247 244 243 246 251 254 257 260 262 263 262 262 262 261 261 260 258 253 249 247 246
267 207 200 244 249 215 220 270 326 319 308 263 354 326 287 258 255 278 80 104 102 100 100 93 95 99 99 99 95 93 90 88 88 84 82 82 83 83 83 84 84 83 81 79 79 77 77 76 75 75 75 75 74 71 70 69 66 67 69 78 93 96 74 58 64 51 358 212 221 233 242 243 242 242 240 238 235 235 235 238 243 247 251 255 258 260 261 263 263 263 263 261 259 257 254 252 249
296 232 211 224 236 230 223 276 24 15 326 321 52 357 288 251 241 253 200 115 94 96 95 92 98 99 100 99 95 95 93 90 90 89 87 84 84 85 83 83 81 79 78 76 76 76 75 75 74 74 73 73 73 72 71 70 70 69 69 70 67 61 54 50 48 34 15 12 7 343 304 275 262 253 241 233 228 226 228 230 234 239 245 249 254 258 260 262 262 262 263 261 260 260 259 255 251
276 247 208 204 205 204 200 149 72 101 260 299 58 92 274 267 233 256 242 133 107 94 85 94 100 98 99 98 97 98 96 95 95 93 91 89 89 88 85 83 80 79 78 76 76 74 74 73 72 71 71 71 71 70 70 68 68 68 67 68 66 61 55 50 48 39 26 19 14 8 3 359 342 319 297 270 245 232 227 225 228 234 239 244 249 254 257 260 261 262 263 263 262 260 259 256 254
235 242 153 130 139 162 175 132 127 224 246 323 335 172 262 279 227 249 239 131 122 113 90 93 98 96 98 99 99 99 97 99 100 97 94 91 90 89 87 84 82 82 80 78 75 73 71 70 68 68 68 69 68 67 67 65 64 63 62 62 62 61 57 52 48 40 33 28 22 18 15 16 16 7 352 332 306 275 251 236 232 232 234 239 245 251 255 257 259 260 261 263 263 261 258 257 258
240 223 126 108 130 148 138 117 142 281 353 308 263 187 251 277 247 252 220 141 174 165 134 123 115 109 104 102 102 101 100 99 100 101 98 95 92 90 87 85 83 81 78 75 73 71 69 66 64 64 63 64 64 63 62 63 63 61 59 57 55 56 54 51 45 37 32 26 20 19 14 11 12 14 12 359 346 333 309 280 260 249 242 239 241 248 252 255 257 258 259 261 262 262 260 259 259
219 161 98 61 74 87 83 113 120 21 353 249 226 186 213 270 273 270 157 165 203 174 150 148 132 125 116 110 109 107 107 104 100 101 100 98 95 90 87 85 82 79 75 72 69 66 62 59 56 55 55 56 57 56 56 58 59 59 58 57 54 54 53 50 46 39 35 30 25 21 15 8 1 359 3 1 350 343 336 324 305 285 270 257 249 248 249 251 254 256 258 260 262 262 262 261 260
129 98 59 27 17 39 51 74 86 62 290 247 220 198 193 263 287 249 190 190 173 151 152 153 135 130 123 118 118 116 114 110 105 103 102 100 97 94 90 86 82 78 74 68 64 59 55 54 49 45 47 47 46 46 45 46 49 51 53 54 52 53 52 49 47 43 38 35 31 28 23 16 3 350 348 349 346 343 340 334 327 315 301 285 271 261 254 251 250 252 255 258 260 261 261 261 261
102 83 70 38 343 16 32 5 46 109 254 259 233 200 187 226 264 235 265 232 158 157 167 163 146 134 128 125 125 124 121 117 113 110 108 106 103 98 92 86 82 78 72 65 61 56 51 49 43 39 42 44 42 40 38 38 40 42 46 46 45 46 45 44 44 43 41 37 35 34 32 28 23 11 357 351 348 348 346 340 331 323 316 304 289 275 266 260 255 252 251 252 255 257 258 260 260
90 91 92 83 323 359 17 300 186 210 248 259 238 174 181 230 252 254 325 1 128 136 142 149 141 131 129 129 130 129 127 123 120 118 115 111 103 96 90 86 84 80 73 65 60 54 48 46 41 38 43 47 46 43 41 41 40 43 45 45 46 46 45 45 44 42 40 37 35 34 32 30 28 24 18 11 5 360 355 351 343 332 323 314 301 287 274 266 261 257 253 251 251 252 255 257 258
139 138 133 137 158 178 244 250 247 259 263 264 256 290 265 262 282 302 7 21 65 99 116 131 131 130 131 132 135 133 130 126 124 122 117 108 100 95 93 94 91 82 71 61 55 51 48 47 45 45 52 56 54 53 53 52 52 55 53 51 49 47 45 45 43 42 39 34 31 28 26 25 22 20 18 13 10 6 1 357 353 345 336 324 312 300 287 275 267 262 259 256 254 252 253 255 257
179 161 142 149 162 168 207 219 210 245 270 282 292 304 220 223 327 10 51 59 77 100 116 125 128 132 133 134 136 133 131 129 126 123 116 107 102 100 102 100 87 70 59 55 54 54 52 53 54 54 59 64 65 66 66 66 68 69 64 59 53 46 41 39 37 35 32 29 24 20 18 16 14 12 10 6 3 0 357 354 351 348 343 334 324 313 300 288 277 270 266 262 259 255 253 253 256
216 141 117 172 192 161 181 220 191 186 269 285 278 247 216 170 83 46 64 68 75 94 112 120 125 133 135 136 138 136 134 132 131 130 122 114 110 107 104 89 65 53 51 51 54 56 57 61 63 62 65 69 71 72 75 78 78 74 68 63 58 52 45 38 32 27 23 20 15 12 10 8 5 2 359 358 355 353 351 349 346 343 340 336 331 324 314 303 288 279 274 270 266 261 257 255 255
182 123 179 223 188 134 129 275 238 130 244 251 227 261 286 94 81 41 55 70 76 90 106 116 125 132 135 139 143 142 140 141 145 141 128 119 116 112 97 70 54 50 49 49 50 54 57 60 61 62 67 70 71 75 79 78 72 65 62 60 58 56 52 45 37 26 19 12 4 3 2 359 356 354 353 352 351 350 349 346 344 341 338 335 332 328 322 317 307 295 286 279 273 268 263 260 258
132 167 223 236 29 86 105 272 313 288 253 253 239 251 273 268 244 29 67 95 116 126 121 122 129 136 142 150 153 153 152 155 157 148 136 129 122 109 85 64 56 54 51 49 55 56 54 51 50 52 54 55 60 63 62 56 52 51 53 52 50 48 46 44 39 32 23 11 1 358 354 351 349 348 348 347 346 346 345 345 344 343 341 338 334 331 326 321 317 311 303 293 284 276 269 266 262
128 177 214 141 79 308 40 133 207 252 257 274 265 248 243 239 226 162 159 177 169 163 150 139 146 155 161 166 167 165 164 166 164 155 150 144 132 113 84 65 54 53 52 55 59 54 46 43 42 43 44 45 46 42 37 34 32 34 36 36 35 34 33 31 29 26 20 14 10 7 3 357 352 348 345 342 340 340 340 341 341 341 340 339 337 335 331 326 322 318 314 308 300 289 278 272 268
62 62 355 61 151 184 216 199 182 223 254 269 271 255 250 250 218 182 194 190 168 163 167 173 179 177 177 177 174 172 172 172 171 167 164 158 150 133 86 58 45 46 47 54 56 46 40 38 36 35 33 31 27 21 20 19 18 19 18 17 15 13 13 13 13 12 9 8 7 4 2 0 357 353 348 345 342 339 337 337 337 337 336 336 335 335 333 331 327 323 319 315 311 304 295 287 279
17 10 330 302 240 194 264 249 188 186 228 250 262 257 252 260 254 210 199 179 165 172 174 180 186 186 185 182 177 177 179 181 182 180 179 181 186 195 205 291 326 52 194 124 74 44 38 31 25 20 13 9 7 7 9 9 9 9 7 6 4 1 360 358 357 357 356 356 354 352 351 350 349 347 344 343 342 340 338 337 335 334 333 332 331 330 330 329 328 326 323 319 315 311 306 301 296
142 174 220 215 211 231 272 262 218 185 203 223 246 263 264 260 314 332 168 150 158 168 163 166 182 188 189 187 186 187 190 194 195 194 198 206 215 222 223 236 244 226 204 179 156 88 54 26 15 10 2 1 1 2 3 3 4 3 1 0 359 356 354 352 350 348 347 347 345 344 343 341 340 339 338 337 336 334 334 333 332 332 330 329 328 326 325 324 323 323 322 321 319 315 310 306 303